Tracking 23446 objects as of 20-Jun-2021
HD Live streaming from Space Station
objects crossing your sky now

STARLINK-2590

Track STARLINK-2590 now!
10-day predictions
STARLINK-2590 is classified as:


NORAD ID: 48397
Int'l Code: 2021-038AW
Perigee: 354.2 km
Apogee: 358.5 km
Inclination: 53.0 °
Period: 91.5 minutes
Semi major axis: 6727 km
RCS: Unknown
Launch date: May 4, 2021
Source: United States (US)
Launch site: AIR FORCE EASTERN TEST RANGE (AFETR)
aabbcc
Your satellite tracking list
Your tracking list is empty




NASA's NSSDC Master Catalog

Two Line Element Set (TLE):
1 48397U 21038AW  21171.50001157 -.00486368  00000-0 -36319-2 0  9997
2 48397  53.0495 171.8712 0003178  13.2282  60.1701 15.73395033  7958
Source of the keplerian elements: AFSPC